| time (UTC) | temp C | wind direction | speed KPH | gust KPH | rain 1hr cm | rain 24hr cm | rain mn cm | humidity % | barometer mb |
| 20260902224516 | 16 | 206 | 1.6 | 6.4 | 0.00 | 0.00 | 0.00 | 47 | 1022.8 |
| 20260902223613 | 16 | 159 | 3.2 | 8.0 | 0.00 | 0.00 | 0.00 | 46 | 1022.7 |
| 20260902221713 | 16 | 177 | 3.2 | 9.7 | 0.00 | 0.00 | 0.00 | 48 | 1022.8 |
| 20260902220717 | 16 | 194 | 4.8 | 8.0 | 0.00 | 0.00 | 0.00 | 46 | 1023.0 |
| 20260902215716 | 16 | 225 | 1.6 | 3.2 | 0.00 | 0.00 | 0.00 | 46 | 1023.0 |
| 20260902214715 | 16 | 225 | 1.6 | 4.8 | 0.00 | 0.00 | 0.00 | 46 | 1023.3 |
| 20260902212814 | 16 | 161 | 4.8 | 8.0 | 0.00 | 0.00 | 0.00 | 45 | 1023.2 |
| 20260902211816 | 16 | 172 | 6.4 | 12.9 | 0.00 | 0.00 | 0.00 | 47 | 1023.2 |
| 20260902210814 | 16 | 227 | 3.2 | 4.8 | 0.00 | 0.00 | 0.00 | 48 | 1023.0 |
| 20260902205816 | 16 | 229 | 3.2 | 9.7 | 0.00 | 0.00 | 0.00 | 48 | 1023.2 |
| 20260902204815 | 16 | 167 | 4.8 | 6.4 | 0.00 | 0.00 | 0.00 | 48 | 1023.1 |
| 20260902203815 | 16 | 160 | 8.0 | 12.9 | 0.00 | 0.00 | 0.00 | 47 | 1023.3 |
| 20260902202914 | 16 | 147 | 1.6 | 4.8 | 0.00 | 0.00 | 0.00 | 47 | 1023.2 |
| 20260902201915 | 15 | 141 | 3.2 | 8.0 | 0.00 | 0.00 | 0.00 | 47 | 1023.3 |
| 20260902201014 | 15 | 245 | 0.0 | 3.2 | 0.00 | 0.00 | 0.00 | 45 | 1023.4 |
| 20260902200031 | 16 | 232 | 4.8 | 6.4 | 0.00 | 0.00 | 0.00 | 46 | 1023.4 |
| 20260902195015 | 16 | 180 | 0.0 | 0.0 | 0.00 | 0.00 | 0.00 | 43 | 1023.3 |
| 20260902194014 | 16 | 162 | 4.8 | 11.3 | 0.00 | 0.00 | 0.00 | 42 | 1023.4 |
| 20260902192016 | 16 | 133 | 1.6 | 3.2 | 0.00 | 0.00 | 0.00 | 40 | 1023.4 |
| 20260902190131 | 16 | 206 | 4.8 | 9.7 | 0.00 | 0.00 | 0.00 | 41 | 1023.4 |
| 20260902185114 | 16 | 233 | 6.4 | 11.3 | 0.00 | 0.00 | 0.00 | 41 | 1023.4 |
| 20260902184121 | 17 | 165 | 8.0 | 11.3 | 0.00 | 0.00 | 0.00 | 41 | 1023.5 |
| 20260902183124 | 16 | 247 | 4.8 | 4.8 | 0.00 | 0.00 | 0.00 | 42 | 1023.3 |
| 20260902182141 | 16 | 137 | 1.6 | 9.7 | 0.00 | 0.00 | 0.00 | 43 | 1023.3 |
| 20260902181127 | 15 | 135 | 4.8 | 6.4 | 0.00 | 0.00 | 0.00 | 45 | 1023.3 |
| 20260902180126 | 15 | 165 | 6.4 | 8.0 | 0.00 | 0.00 | 0.00 | 47 | 1023.6 |
| 20260902175224 | 14 | 234 | 4.8 | 8.0 | 0.00 | 0.00 | 0.00 | 48 | 1023.3 |
| 20260902174226 | 14 | 207 | 3.2 | 6.4 | 0.00 | 0.00 | 0.00 | 48 | 1023.3 |
| 20260902173226 | 14 | 167 | 3.2 | 6.4 | 0.00 | 0.00 | 0.00 | 49 | 1023.2 |
| 20260902172324 | 14 | 172 | 4.8 | 9.7 | 0.00 | 0.00 | 0.00 | 50 | 1023.2 |
| 20260902171326 | 13 | 159 | 6.4 | 8.0 | 0.00 | 0.00 | 0.00 | 51 | 1023.2 |
| 20260902170326 | 13 | 171 | 3.2 | 6.4 | 0.00 | 0.00 | 0.00 | 51 | 1023.2 |
| 20260902163326 | 13 | 190 | 8.0 | 14.5 | 0.00 | 0.00 | 0.00 | 54 | 1023.1 |
| 20260902162325 | 13 | 152 | 4.8 | 8.0 | 0.00 | 0.00 | 0.00 | 52 | 1022.8 |
| 20260902161326 | 13 | 186 | 3.2 | 12.9 | 0.00 | 0.00 | 0.00 | 54 | 1022.9 |
| 20260902160326 | 12 | 224 | 0.0 | 0.0 | 0.00 | 0.00 | 0.00 | 57 | 1022.7 |
| 20260902155424 | 12 | 173 | 0.0 | 3.2 | 0.00 | 0.00 | 0.00 | 58 | 1022.8 |
| 20260902151425 | 11 | 138 | 0.0 | 0.0 | 0.00 | 0.00 | 0.00 | 61 | 1022.7 |
| 20260902150425 | 10 | 174 | 0.0 | 1.6 | 0.00 | 0.00 | 0.00 | 61 | 1022.7 |
| 20260902145428 | 10 | 186 | 1.6 | 3.2 | 0.00 | 0.00 | 0.00 | 62 | 1022.7 |
| 20260902144524 | 10 | 225 | 3.2 | 4.8 | 0.00 | 0.00 | 0.00 | 63 | 1022.6 |
| 20260902143540 | 9 | 180 | 1.6 | 4.8 | 0.00 | 0.00 | 0.00 | 62 | 1022.4 |
| 20260902142625 | 9 | 180 | 0.0 | 3.2 | 0.00 | 0.00 | 0.00 | 63 | 1022.1 |
| 20260902141625 | 8 | 210 | 0.0 | 1.6 | 0.00 | 0.00 | 0.00 | 63 | 1022.0 |
| 20260902140724 | 8 | 157 | 0.0 | 0.0 | 0.00 | 0.00 | 0.00 | 64 | 1021.9 |
| 20260902133824 | 8 | 225 | 0.0 | 1.6 | 0.00 | 0.00 | 0.00 | 65 | 1021.6 |
| 20260902132828 | 8 | 225 | 0.0 | 0.0 | 0.00 | 0.00 | 0.00 | 64 | 1021.4 |
| 20260902131924 | 8 | 225 | 0.0 | 0.0 | 0.00 | 0.00 | 0.00 | 64 | 1021.4 |
| 20260902130925 | 9 | 225 | 0.0 | 0.0 | 0.00 | 0.00 | 0.00 | 65 | 1021.3 |
| 20260902125928 | 8 | 194 | 0.0 | 3.2 | 0.00 | 0.00 | 0.00 | 66 | 1021.2 |
| 20260902124927 | 8 | 185 | 1.6 | 4.8 | 0.00 | 0.00 | 0.00 | 67 | 1021.4 |
| 20260902123925 | 8 | 180 | 0.0 | 0.0 | 0.00 | 0.00 | 0.00 | 67 | 1021.4 |
| 20260902122925 | 7 | 180 | 0.0 | 1.6 | 0.00 | 0.00 | 0.00 | 69 | 1021.4 |
| 20260902121926 | 7 | 202 | 0.0 | 3.2 | 0.00 | 0.00 | 0.00 | 68 | 1021.2 |
| 20260902120924 | 7 | 202 | 0.0 | 0.0 | 0.00 | 0.00 | 0.00 | 67 | 1021.3 |
| 20260902115942 | 7 | 270 | 0.0 | 0.0 | 0.00 | 0.00 | 0.00 | 66 | 1021.3 |
| 20260902115023 | 7 | 270 | 0.0 | 0.0 | 0.00 | 0.00 | 0.00 | 67 | 1021.5 |
| 20260902114026 | 7 | 270 | 0.0 | 0.0 | 0.00 | 0.00 | 0.00 | 66 | 1021.4 |
| 20260902113026 | 7 | 337 | 0.0 | 0.0 | 0.00 | 0.00 | 0.00 | 67 | 1021.5 |
| 20260902112026 | 7 | 337 | 0.0 | 0.0 | 0.00 | 0.00 | 0.00 | 67 | 1021.5 |
| 20260902111025 | 7 | 337 | 0.0 | 0.0 | 0.00 | 0.00 | 0.00 | 66 | 1021.6 |
| 20260902105125 | 7 | 337 | 0.0 | 0.0 | 0.00 | 0.00 | 0.00 | 66 | 1021.8 |
| 20260902104127 | 7 | 337 | 0.0 | 0.0 | 0.00 | 0.00 | 0.00 | 65 | 1021.7 |
| 20260902103125 | 7 | 337 | 0.0 | 0.0 | 0.00 | 0.00 | 0.00 | 64 | 1021.7 |
| 20260902102126 | 7 | 337 | 0.0 | 0.0 | 0.00 | 0.00 | 0.00 | 64 | 1021.6 |
| 20260902101225 | 7 | 337 | 0.0 | 0.0 | 0.00 | 0.00 | 0.00 | 62 | 1021.5 |
| 20260902100224 | 8 | 337 | 0.0 | 0.0 | 0.00 | 0.00 | 0.00 | 62 | 1021.6 |
| 20260902094225 | 8 | 337 | 0.0 | 0.0 | 0.00 | 0.00 | 0.00 | 60 | 1021.9 |
| 20260902093227 | 8 | 337 | 0.0 | 0.0 | 0.00 | 0.00 | 0.00 | 60 | 1022.0 |
| 20260902092226 | 8 | 337 | 0.0 | 0.0 | 0.00 | 0.00 | 0.00 | 61 | 1021.9 |
| 20260902091324 | 8 | 337 | 0.0 | 0.0 | 0.00 | 0.00 | 0.00 | 61 | 1022.0 |
| 20260902090325 | 8 | 337 | 0.0 | 0.0 | 0.00 | 0.00 | 0.00 | 62 | 1021.9 |
| 20260902085425 | 8 | 337 | 0.0 | 0.0 | 0.00 | 0.00 | 0.00 | 63 | 1022.0 |
| 20260902085324 | 8 | 337 | 0.0 | 0.0 | 0.00 | 0.00 | 0.00 | 64 | 1022.0 |
| 20260902084325 | 8 | 337 | 0.0 | 0.0 | 0.00 | 0.00 | 0.00 | 64 | 1022.0 |
| 20260902083325 | 8 | 337 | 0.0 | 0.0 | 0.00 | 0.00 | 0.00 | 66 | 1022.1 |
| 20260902082327 | 8 | 337 | 0.0 | 0.0 | 0.00 | 0.00 | 0.00 | 66 | 1022.0 |
| 20260902081325 | 8 | 337 | 0.0 | 0.0 | 0.00 | 0.00 | 0.00 | 66 | 1022.1 |
| 20260902080324 | 8 | 337 | 0.0 | 0.0 | 0.00 | 0.00 | 0.00 | 66 | 1022.0 |
| 20260902075324 | 8 | 337 | 0.0 | 0.0 | 0.00 | 0.00 | 0.00 | 69 | 1022.1 |
| 20260902074325 | 7 | 337 | 0.0 | 0.0 | 0.00 | 0.00 | 0.00 | 71 | 1022.0 |
| 20260902073326 | 7 | 315 | 0.0 | 0.0 | 0.00 | 0.00 | 0.00 | 72 | 1022.1 |
| 20260902071325 | 6 | 315 | 0.0 | 0.0 | 0.00 | 0.00 | 0.00 | 78 | 1021.9 |
| 20260902070424 | 6 | 315 | 0.0 | 0.0 | 0.00 | 0.00 | 0.00 | 76 | 1021.9 |
| 20260902065429 | 7 | 315 | 0.0 | 0.0 | 0.00 | 0.00 | 0.00 | 75 | 1021.8 |
| 20260902064430 | 7 | 315 | 0.0 | 0.0 | 0.00 | 0.00 | 0.00 | 73 | 1021.8 |
| 20260902062431 | 8 | 315 | 0.0 | 0.0 | 0.00 | 0.00 | 0.00 | 71 | 1021.9 |
| 20260902061432 | 8 | 315 | 0.0 | 0.0 | 0.00 | 0.00 | 0.00 | 72 | 1021.5 |
| 20260902060531 | 8 | 315 | 0.0 | 0.0 | 0.00 | 0.00 | 0.00 | 73 | 1021.5 |
| 20260902053629 | 7 | 315 | 0.0 | 0.0 | 0.00 | 0.00 | 0.00 | 76 | 1021.3 |
| 20260902052633 | 7 | 208 | 0.0 | 0.0 | 0.00 | 0.00 | 0.00 | 76 | 1021.5 |
| 20260902045831 | 7 | 202 | 0.0 | 0.0 | 0.00 | 0.00 | 0.00 | 72 | 1021.8 |
| 20260902043831 | 8 | 202 | 0.0 | 0.0 | 0.00 | 0.00 | 0.00 | 72 | 1021.7 |
| 20260902042848 | 8 | 202 | 0.0 | 0.0 | 0.00 | 0.00 | 0.00 | 70 | 1021.7 |
| 20260902041931 | 8 | 202 | 0.0 | 0.0 | 0.00 | 0.00 | 0.00 | 70 | 1021.6 |
| 20260902040933 | 9 | 202 | 0.0 | 0.0 | 0.00 | 0.00 | 0.00 | 70 | 1021.5 |
| 20260902035931 | 9 | 202 | 0.0 | 0.0 | 0.00 | 0.00 | 0.00 | 69 | 1021.4 |
| 20260902034930 | 10 | 202 | 0.0 | 0.0 | 0.00 | 0.00 | 0.00 | 68 | 1021.4 |
| 20260902033932 | 10 | 202 | 0.0 | 0.0 | 0.00 | 0.00 | 0.00 | 67 | 1021.4 |
| 20260902032929 | 10 | 202 | 0.0 | 0.0 | 0.00 | 0.00 | 0.00 | 67 | 1021.3 |
| 20260902031930 | 10 | 202 | 0.0 | 0.0 | 0.00 | 0.00 | 0.00 | 65 | 1021.3 |
| 20260902031030 | 10 | 202 | 0.0 | 0.0 | 0.00 | 0.00 | 0.00 | 64 | 1021.1 |
| 20260902030030 | 11 | 202 | 0.0 | 1.6 | 0.00 | 0.00 | 0.00 | 64 | 1021.0 |
| 20260902024130 | 11 | 180 | 0.0 | 0.0 | 0.00 | 0.00 | 0.00 | 61 | 1020.7 |
| 20260902021130 | 12 | 187 | 0.0 | 1.6 | 0.00 | 0.00 | 0.00 | 58 | 1020.6 |
| 20260902020131 | 12 | 202 | 0.0 | 0.0 | 0.00 | 0.00 | 0.00 | 58 | 1020.5 |
| 20260902015130 | 12 | 180 | 0.0 | 0.0 | 0.00 | 0.00 | 0.00 | 57 | 1020.6 |
| 20260902014147 | 13 | 247 | 0.0 | 0.0 | 0.00 | 0.00 | 0.00 | 57 | 1020.6 |
| 20260902013231 | 13 | 180 | 0.0 | 3.2 | 0.00 | 0.00 | 0.00 | 55 | 1020.6 |
| 20260902011232 | 13 | 235 | 0.0 | 1.6 | 0.00 | 0.00 | 0.00 | 54 | 1020.6 |
| 20260902005330 | 14 | 155 | 0.0 | 1.6 | 0.00 | 0.00 | 0.00 | 53 | 1020.6 |
| 20260902003330 | 15 | 157 | 0.0 | 1.6 | 0.00 | 0.00 | 0.00 | 51 | 1020.6 |
| 20260902002329 | 15 | 180 | 0.0 | 1.6 | 0.00 | 0.00 | 0.00 | 51 | 1020.6 |
| 20260902001330 | 15 | 192 | 1.6 | 6.4 | 0.00 | 0.00 | 0.00 | 50 | 1020.4 |
| 20260902000331 | 15 | 190 | 0.0 | 4.8 | 0.00 | 0.00 | 0.00 | 50 | 1020.5 |
| 20260901235430 | 15 | 217 | 3.2 | 9.7 | 0.00 | 0.00 | 0.00 | 48 | 1020.7 |
| 20260901234429 | 15 | 159 | 6.4 | 9.7 | 0.00 | 0.00 | 0.00 | 48 | 1020.7 |
| 20260901233430 | 16 | 162 | 4.8 | 8.0 | 0.00 | 0.00 | 0.00 | 47 | 1020.7 |
| 20260901232430 | 16 | 157 | 1.6 | 3.2 | 0.00 | 0.00 | 0.00 | 45 | 1020.6 |
| 20260901231431 | 16 | 232 | 3.2 | 6.4 | 0.00 | 0.00 | 0.00 | 45 | 1020.7 |
| 20260901230430 | 17 | 224 | 0.0 | 4.8 | 0.00 | 0.00 | 0.00 | 44 | 1020.7 |
| 20260901225429 | 17 | 135 | 1.6 | 3.2 | 0.00 | 0.00 | 0.00 | 44 | 1020.7 |